Wind_Speed
10 11 11 13 15 16 18 20 20 19 17 15 13 12 10 9 8 6 6 5 5 4 4 4 5 6 6 7 8 9 9 8 8 8 7 7 7 7 7 7 6 6 6 6 6 5 5 5 5
9 10 10 13 16 17 19 20 20 19 17 16 15 13 10 8 7 6 6 6 5 3 3 4 4 5 6 6 7 7 7 8 8 8 7 7 7 7 7 6 6 6 6 6 6 5 5 5 5
8 9 10 12 14 16 19 20 20 18 18 17 16 13 11 9 7 6 6 6 4 3 3 4 4 5 5 5 6 7 7 7 7 7 7 6 6 6 7 6 6 6 6 5 5 5 5 5 5
7 8 9 12 13 15 18 19 20 19 18 17 16 14 12 9 7 6 5 5 4 3 3 4 4 5 5 5 6 6 6 6 6 6 6 6 5 5 6 6 6 6 6 5 5 4 4 4 4
5 7 9 10 12 14 16 18 19 19 18 17 16 15 12 10 8 6 5 4 3 3 3 4 5 4 4 5 5 5 5 6 6 6 6 5 5 5 5 6 6 6 6 5 4 4 4 4 4
5 6 8 10 12 14 15 16 17 18 16 16 15 14 13 11 8 7 6 5 3 3 3 4 5 4 4 4 4 4 4 4 4 5 5 5 5 5 5 5 6 5 5 4 4 4 4 4 4
3 4 6 8 10 12 15 15 16 17 16 15 15 14 13 11 9 7 6 5 4 3 4 5 5 4 4 4 4 4 4 3 4 4 4 4 4 4 4 4 5 5 5 4 4 4 3 3 4
1 2 4 7 8 11 13 15 16 16 16 15 15 14 13 11 9 7 7 6 5 4 4 4 4 4 4 4 4 4 3 3 3 3 3 3 3 3 3 4 5 5 5 4 4 4 3 3 4
2 2 4 6 8 10 11 14 15 15 16 15 15 14 13 11 10 8 7 6 5 4 4 4 4 4 3 3 3 2 2 2 1 1 1 2 2 2 2 3 4 4 4 4 3 3 3 3 3
2 3 5 6 8 9 11 13 14 14 15 15 14 14 13 11 10 9 7 6 5 4 3 3 3 3 2 2 2 1 1 1 1 0 1 0 1 1 1 2 2 3 3 3 3 3 3 3 3
2 3 5 6 7 9 11 12 13 14 14 14 14 14 13 12 11 9 8 6 5 4 3 2 2 1 2 1 1 1 1 1 1 2 1 1 0 1 1 1 1 2 2 2 2 2 2 2 3
3 3 4 6 6 8 9 10 12 12 12 12 12 13 13 12 10 9 8 7 5 3 3 2 1 1 1 1 1 1 1 2 2 2 3 2 1 1 1 1 1 1 1 1 1 1 2 2 2
4 4 5 6 6 7 8 9 10 11 11 11 11 12 12 12 10 9 8 7 6 4 3 2 2 2 2 2 2 2 2 1 3 4 4 3 2 2 2 2 2 1 1 0 1 0 1 1 1
5 5 6 7 5 5 7 8 9 10 10 10 10 10 11 11 11 9 8 8 6 5 4 4 3 2 3 3 3 2 2 2 2 3 4 4 4 4 4 3 2 2 2 1 1 1 1 1 0
6 6 7 7 6 5 5 6 8 10 9 8 8 9 10 10 10 9 9 8 8 7 5 4 4 3 3 3 3 3 3 3 3 4 4 5 5 5 5 3 3 2 2 2 2 2 2 2 1
8 7 8 7 6 5 4 5 7 9 10 7 6 7 8 9 9 9 9 9 9 8 6 5 4 4 4 4 4 3 3 3 4 4 5 5 6 6 6 5 4 4 4 3 3 3 3 3 2
9 8 8 7 7 6 5 5 7 8 8 6 6 6 7 8 9 9 9 9 9 8 7 6 5 4 4 4 3 3 3 4 4 5 6 6 7 7 7 7 6 5 5 4 4 4 4 4 3
11 10 9 9 8 7 5 4 5 6 6 6 5 6 8 9 9 9 10 10 9 9 8 6 5 4 4 5 5 5 4 4 4 5 6 7 7 7 8 8 7 6 6 6 6 6 6 5 5
14 12 12 11 10 8 6 5 5 6 5 6 5 6 9 10 9 10 11 11 10 8 8 6 4 3 4 5 5 6 5 5 4 5 6 7 8 8 8 8 8 8 7 7 7 8 7 7 7
15 14 13 13 12 10 8 6 6 6 6 6 6 7 8 10 11 10 11 11 10 8 7 7 6 5 4 5 5 5 5 5 5 5 6 7 8 9 9 9 9 9 9 9 9 9 9 9 8
16 16 15 14 14 12 10 8 7 7 7 7 7 7 8 9 10 11 11 10 9 7 7 7 7 7 6 5 6 6 6 6 6 7 8 8 9 10 10 10 10 10 10 10 10 11 11 10 10
17 17 17 16 15 14 12 10 8 8 7 7 7 7 7 9 9 10 10 9 9 8 9 9 8 8 6 6 5 6 6 7 8 8 8 9 10 12 12 12 11 12 12 12 12 12 13 12 12
19 19 18 17 17 16 14 12 10 9 8 7 7 8 7 9 9 10 11 10 10 10 10 11 10 7 7 7 6 6 6 7 8 7 8 10 11 12 13 13 13 13 13 13 14 14 14 14 13
21 21 19 18 18 18 16 14 11 9 8 8 8 8 8 8 10 11 12 10 10 10 10 10 9 7 7 6 6 6 7 8 8 8 9 10 11 12 13 14 15 14 14 14 15 15 15 16 15
22 22 20 19 19 18 17 16 12 11 9 9 9 8 8 9 11 12 12 11 10 10 9 9 8 8 7 7 6 6 8 8 8 9 10 11 12 13 14 15 16 16 16 16 16 16 16 16 17
24 23 22 21 20 18 18 16 13 12 10 10 10 9 10 11 12 12 12 11 11 11 9 9 8 8 7 7 7 8 9 9 9 10 11 12 13 14 15 16 17 18 18 18 18 18 17 18 18
25 24 23 23 22 21 20 17 14 12 11 11 11 11 11 12 13 13 13 12 12 11 10 9 8 8 7 7 8 9 9 9 10 11 12 13 13 14 15 16 16 17 18 18 18 19 19 19 20
26 25 25 24 23 22 21 18 14 13 12 12 12 13 12 12 13 13 12 12 12 12 10 10 9 9 8 8 9 9 9 9 10 11 12 13 14 14 15 15 16 18 19 19 20 20 20 20 20
27 26 26 25 25 23 21 18 15 14 13 12 12 13 13 12 13 13 12 12 12 12 10 10 10 10 9 9 9 10 10 10 10 11 12 12 13 13 14 15 16 18 19 20 20 21 21 21 22
29 27 26 26 25 23 22 18 16 15 13 12 13 13 14 14 14 13 13 13 12 12 10 11 11 11 11 10 10 10 11 12 12 12 12 12 12 13 14 15 16 17 19 20 21 22 23 23 23
Wind_Direction
75 80 76 69 69 69 66 63 59 53 51 53 55 56 59 64 68 73 81 82 83 93 107 108 104 100 95 92 89 85 78 71 67 62 59 57 56 53 47 44 41 44 50 54 59 61 61 62 64
74 79 74 68 69 71 66 63 57 51 49 48 48 48 51 59 65 75 84 83 84 89 102 109 111 109 103 95 89 84 77 70 66 62 60 58 56 51 45 45 43 44 46 49 52 54 52 54 57
75 70 70 68 66 68 62 60 54 50 49 48 44 43 44 51 61 74 84 86 88 102 111 107 104 108 106 96 87 85 79 70 65 62 60 58 56 50 45 42 44 43 42 43 44 48 45 47 52
76 65 66 67 63 63 59 57 55 50 47 45 43 42 42 46 54 68 81 85 91 109 115 109 102 104 105 97 89 86 76 68 66 62 59 56 52 48 44 41 42 42 40 41 43 42 41 43 49
67 64 64 61 60 61 59 57 53 48 47 42 41 42 43 44 49 64 77 86 95 101 109 110 107 103 103 100 92 86 77 71 68 63 57 53 50 45 41 39 39 39 43 43 39 37 40 40 51
75 64 55 57 59 57 56 54 50 45 43 39 38 37 40 40 42 55 68 75 88 96 107 117 118 110 105 100 92 84 76 73 71 60 51 49 50 47 42 38 36 37 46 47 38 39 46 50 54
83 57 54 53 52 51 52 50 47 40 39 37 36 36 37 37 39 48 60 64 76 86 103 113 113 113 111 104 100 89 76 76 72 58 48 45 48 47 45 41 39 41 46 47 40 40 44 49 53
71 52 44 38 35 42 45 46 43 38 36 36 34 33 36 38 38 45 56 61 70 79 97 110 110 110 105 103 104 101 87 81 79 67 48 42 48 53 47 43 46 46 44 43 42 47 46 48 54
34 24 12 15 19 32 40 43 42 37 31 32 32 32 34 35 38 43 51 55 66 79 94 106 107 102 99 102 113 116 102 87 83 82 39 37 59 66 45 44 43 42 42 44 47 52 52 49 58
344 344 356 6 16 29 39 41 40 37 31 30 30 29 27 29 33 38 45 50 58 74 91 104 105 100 99 103 116 126 122 119 171 202 227 6 53 94 49 37 35 33 36 43 54 53 56 57 60
307 325 341 357 12 22 35 40 41 39 33 30 29 29 26 27 30 34 38 42 48 60 73 90 92 91 74 69 89 139 182 244 242 222 213 223 255 209 213 342 17 25 33 42 56 48 47 55 54
289 315 338 351 1 15 25 33 38 35 30 25 25 26 25 24 24 26 27 28 32 45 57 60 29 14 12 352 307 247 237 265 245 237 229 226 233 220 210 235 322 358 15 12 50 57 42 47 50
273 299 319 330 347 7 23 28 32 30 24 23 24 23 21 18 18 18 17 15 17 17 10 7 349 335 334 310 290 270 265 289 263 244 234 235 241 237 221 226 252 269 270 237 116 109 32 31 45
269 287 302 313 326 8 20 22 28 27 22 23 25 21 20 16 14 13 12 6 2 358 350 341 332 320 317 305 292 277 268 271 257 243 243 241 237 234 223 227 246 255 252 225 210 222 259 306 50
259 275 290 295 307 345 8 18 22 20 16 17 18 20 19 14 12 10 8 1 354 350 339 321 312 309 309 311 292 272 280 276 257 245 246 243 229 224 218 227 246 246 235 219 216 227 240 250 246
255 266 277 288 292 312 339 7 10 9 7 14 21 20 12 5 1 1 1 355 347 345 335 318 317 319 319 315 306 286 287 281 266 256 248 236 232 229 226 233 245 244 234 225 224 239 243 242 250
249 255 266 275 287 296 323 349 356 357 5 14 15 14 9 357 355 356 354 350 347 342 331 313 308 317 321 315 308 312 301 285 273 260 247 236 229 230 227 230 235 236 234 227 228 242 246 248 253
244 250 256 265 279 287 309 333 347 347 356 3 6 5 4 356 351 349 348 344 344 338 330 319 313 318 313 307 306 303 296 288 270 262 249 233 228 227 225 229 230 234 239 236 236 241 248 253 255
242 250 255 260 273 282 293 311 327 323 330 342 353 356 354 352 343 341 345 345 340 333 328 324 314 312 302 293 287 291 292 285 269 255 241 231 226 225 227 231 229 235 245 245 246 246 249 254 256
240 246 252 257 265 275 283 293 308 312 314 325 339 343 344 343 341 340 338 338 335 331 323 327 315 301 291 282 276 279 282 281 266 252 241 236 230 229 230 233 237 243 249 252 254 251 251 252 254
239 242 245 250 259 268 275 282 295 303 306 315 326 332 331 334 334 332 336 332 325 324 325 319 315 300 288 285 277 275 270 270 267 253 245 241 235 234 235 236 240 246 250 251 254 255 256 255 253
236 238 241 247 254 261 270 276 290 302 307 316 322 325 327 330 328 331 333 327 318 314 319 318 312 303 287 285 289 283 274 267 265 257 252 247 243 242 242 241 243 248 250 251 253 255 257 258 254
234 238 241 247 253 259 264 273 282 295 307 316 320 328 324 332 329 328 327 319 314 313 317 317 313 298 281 280 280 277 274 267 263 260 257 253 252 249 245 244 244 246 248 253 255 255 255 255 254
234 238 243 247 253 256 262 271 279 285 295 305 309 315 319 323 331 328 326 317 317 312 310 315 314 296 290 286 278 276 275 268 260 259 258 256 255 254 250 246 246 247 250 253 256 255 256 257 256
235 239 244 247 250 256 261 268 275 280 284 291 296 303 313 320 326 327 329 330 321 317 310 310 306 297 293 288 280 278 278 274 266 261 258 257 256 257 255 253 251 251 254 255 255 257 256 257 258
237 240 245 249 253 256 261 267 273 278 280 285 292 296 306 315 320 323 324 326 322 317 309 303 304 299 295 294 287 281 279 277 273 268 262 260 259 260 260 258 259 257 258 257 255 256 256 258 259
236 239 243 247 252 255 259 265 271 274 275 278 287 296 302 312 318 317 319 320 318 315 304 298 299 298 296 291 287 283 280 277 275 272 267 265 265 263 263 263 261 260 260 260 258 257 257 259 261
234 238 242 246 250 255 260 264 271 271 271 277 286 293 303 312 320 316 314 315 316 310 303 299 298 299 297 290 288 284 281 279 276 273 271 269 267 266 265 263 262 262 262 261 260 259 260 260 262
235 238 242 246 250 255 259 262 268 271 273 275 282 290 300 306 313 316 312 308 310 310 302 299 297 294 290 282 281 282 281 280 282 277 276 275 271 270 269 265 261 262 262 262 262 262 261 262 263
234 239 243 247 251 255 258 258 262 266 270 274 281 290 297 303 305 309 307 307 304 307 300 297 289 290 287 280 278 280 282 282 285 281 276 275 275 275 273 270 264 264 265 265 266 265 262 262 263
Height
5891 5891 5892 5893 5892 5891 5888 5887 5886 5885 5886 5886 5885 5885 5885 5886 5886 5888 5887 5885 5886 5887 5887 5887 5887 5887 5888 5888 5889 5890 5891 5892 5892 5893 5894 5894 5894 5895 5895 5895 5895 5895 5895 5895 5894 5895 5895 5895 5895
5893 5894 5895 5895 5893 5892 5891 5889 5888 5888 5887 5887 5886 5886 5886 5886 5886 5886 5886 5886 5887 5888 5888 5888 5888 5888 5889 5889 5890 5890 5891 5892 5893 5894 5894 5895 5895 5895 5895 5896 5896 5895 5895 5895 5895 5895 5895 5895 5895
5895 5896 5897 5896 5895 5893 5893 5891 5890 5890 5889 5888 5888 5888 5887 5887 5887 5887 5887 5887 5887 5888 5888 5888 5888 5889 5889 5890 5890 5891 5892 5893 5893 5894 5895 5895 5896 5896 5896 5896 5896 5896 5896 5896 5896 5896 5896 5896 5896
5897 5898 5898 5898 5896 5895 5894 5893 5892 5891 5891 5890 5889 5889 5888 5888 5888 5887 5887 5887 5888 5888 5888 5889 5889 5889 5890 5890 5891 5892 5892 5893 5894 5894 5895 5896 5896 5896 5897 5897 5897 5897 5897 5897 5897 5897 5897 5897 5897
5898 5899 5899 5898 5898 5897 5896 5895 5894 5893 5892 5892 5891 5891 5890 5889 5889 5888 5888 5888 5889 5889 5889 5889 5889 5890 5890 5891 5891 5892 5893 5893 5894 5894 5895 5896 5896 5897 5897 5897 5897 5897 5897 5897 5897 5897 5897 5897 5897
5900 5900 5901 5900 5899 5898 5897 5896 5895 5895 5894 5894 5893 5892 5891 5891 5890 5889 5889 5889 5889 5890 5889 5889 5889 5890 5890 5891 5892 5892 5893 5894 5895 5895 5896 5896 5897 5897 5897 5897 5898 5898 5898 5898 5898 5898 5898 5898 5898
5901 5901 5901 5901 5900 5900 5899 5898 5897 5897 5896 5895 5895 5893 5893 5892 5891 5890 5890 5890 5890 5890 5890 5890 5890 5890 5891 5892 5892 5893 5893 5894 5895 5895 5896 5896 5897 5897 5897 5898 5898 5898 5898 5898 5898 5898 5899 5899 5899
5901 5902 5901 5901 5901 5901 5900 5899 5899 5898 5897 5897 5896 5895 5894 5893 5892 5891 5890 5890 5890 5890 5890 5890 5890 5891 5891 5892 5892 5893 5894 5894 5895 5895 5896 5896 5897 5897 5898 5898 5898 5899 5899 5898 5899 5899 5899 5899 5900
5902 5903 5902 5902 5902 5901 5901 5900 5900 5900 5899 5898 5897 5896 5895 5894 5893 5892 5891 5891 5891 5891 5891 5891 5891 5891 5891 5892 5892 5893 5893 5894 5895 5895 5896 5896 5897 5897 5898 5898 5899 5899 5899 5899 5899 5899 5900 5900 5900
5902 5903 5903 5903 5903 5902 5902 5901 5901 5901 5900 5899 5898 5897 5896 5895 5894 5893 5892 5892 5892 5891 5891 5891 5892 5892 5892 5892 5892 5893 5893 5894 5894 5895 5895 5896 5897 5897 5898 5898 5899 5899 5899 5899 5900 5900 5900 5901 5901
5902 5903 5903 5903 5903 5903 5902 5902 5902 5901 5901 5901 5900 5898 5897 5896 5895 5894 5893 5893 5892 5892 5892 5892 5892 5892 5892 5892 5892 5892 5893 5893 5894 5894 5895 5896 5896 5897 5898 5898 5899 5900 5900 5900 5900 5900 5901 5901 5902
5902 5903 5903 5903 5903 5903 5903 5903 5902 5902 5903 5902 5901 5899 5898 5896 5895 5895 5894 5894 5893 5892 5892 5892 5892 5892 5892 5892 5892 5892 5892 5892 5893 5894 5894 5895 5896 5897 5897 5898 5899 5900 5900 5900 5900 5901 5901 5902 5902
5902 5903 5903 5904 5904 5904 5904 5904 5903 5903 5903 5902 5901 5900 5899 5897 5896 5896 5895 5894 5893 5893 5892 5892 5892 5892 5892 5892 5892 5891 5891 5892 5892 5893 5894 5895 5896 5896 5897 5898 5899 5899 5900 5900 5901 5901 5902 5902 5902
5902 5903 5903 5903 5903 5904 5904 5904 5903 5903 5903 5902 5902 5901 5900 5898 5897 5896 5896 5895 5894 5893 5893 5892 5891 5891 5891 5891 5891 5891 5891 5891 5891 5892 5893 5894 5895 5896 5897 5898 5898 5899 5900 5900 5901 5901 5902 5902 5903
5901 5903 5903 5903 5903 5903 5904 5904 5903 5903 5903 5903 5902 5902 5901 5899 5898 5897 5896 5895 5894 5893 5893 5892 5891 5890 5890 5890 5890 5890 5890 5890 5891 5891 5892 5892 5894 5895 5896 5897 5898 5899 5899 5900 5901 5901 5902 5902 5902
5900 5902 5903 5903 5903 5903 5905 5904 5904 5903 5903 5903 5902 5902 5901 5900 5899 5897 5896 5895 5894 5893 5892 5891 5890 5890 5889 5889 5889 5889 5889 5889 5889 5890 5891 5891 5893 5894 5895 5896 5897 5898 5899 5900 5900 5901 5901 5902 5902
5899 5901 5901 5902 5902 5903 5904 5903 5903 5903 5903 5903 5903 5902 5901 5900 5899 5897 5896 5895 5893 5892 5891 5890 5890 5889 5889 5889 5888 5888 5888 5888 5888 5889 5889 5890 5891 5892 5894 5895 5896 5897 5898 5899 5900 5900 5901 5901 5902
5898 5899 5900 5901 5901 5902 5902 5902 5903 5903 5903 5903 5902 5902 5901 5899 5898 5897 5895 5893 5892 5892 5890 5889 5888 5888 5888 5888 5888 5887 5887 5887 5887 5887 5888 5889 5890 5891 5892 5894 5895 5896 5897 5898 5899 5899 5900 5901 5901
5896 5898 5899 5900 5900 5901 5901 5901 5902 5902 5902 5902 5902 5901 5900 5899 5897 5896 5894 5892 5891 5890 5889 5888 5887 5887 5887 5887 5887 5887 5886 5886 5886 5886 5886 5887 5889 5890 5891 5893 5894 5895 5896 5897 5898 5898 5899 5899 5900
5894 5896 5897 5898 5898 5899 5900 5900 5901 5901 5901 5901 5901 5900 5899 5897 5896 5895 5893 5892 5890 5889 5888 5888 5887 5886 5886 5886 5886 5886 5885 5885 5885 5885 5885 5886 5887 5888 5890 5891 5892 5894 5895 5896 5896 5897 5898 5898 5899
5892 5894 5895 5896 5897 5898 5899 5900 5900 5900 5900 5900 5899 5899 5898 5896 5895 5894 5892 5891 5889 5888 5887 5887 5886 5885 5884 5884 5884 5884 5884 5884 5884 5884 5884 5885 5886 5887 5888 5889 5891 5892 5893 5894 5894 5895 5896 5896 5897
5890 5891 5893 5894 5895 5896 5897 5898 5899 5899 5899 5899 5898 5897 5896 5895 5894 5892 5890 5889 5888 5887 5885 5884 5884 5883 5883 5883 5883 5882 5882 5883 5883 5883 5883 5884 5884 5885 5886 5888 5888 5889 5890 5891 5892 5893 5893 5894 5894
5887 5888 5890 5892 5893 5894 5895 5896 5898 5897 5897 5897 5896 5896 5894 5893 5892 5890 5889 5887 5887 5885 5884 5882 5881 5881 5881 5881 5881 5881 5880 5881 5881 5881 5882 5882 5882 5883 5884 5885 5886 5887 5888 5889 5889 5890 5891 5891 5892
5883 5885 5887 5889 5890 5892 5893 5894 5895 5895 5895 5895 5895 5894 5893 5892 5890 5889 5887 5885 5884 5883 5882 5881 5880 5879 5879 5879 5878 5878 5879 5879 5879 5879 5879 5880 5880 5881 5881 5882 5883 5884 5885 5886 5886 5887 5888 5888 5889
5880 5883 5885 5886 5887 5889 5890 5891 5894 5893 5894 5894 5893 5892 5891 5890 5889 5887 5885 5883 5882 5880 5879 5878 5878 5877 5877 5876 5876 5876 5877 5877 5877 5877 5877 5878 5878 5878 5879 5879 5880 5880 5881 5882 5883 5883 5884 5885 5886
5876 5879 5882 5884 5885 5886 5887 5888 5891 5891 5891 5891 5891 5890 5889 5888 5887 5885 5883 5882 5880 5879 5877 5877 5876 5875 5874 5874 5874 5874 5874 5874 5874 5874 5874 5875 5875 5876 5876 5876 5877 5877 5878 5878 5879 5880 5880 5881 5882
5872 5875 5878 5880 5881 5883 5884 5886 5888 5889 5889 5889 5888 5888 5887 5886 5884 5883 5881 5880 5879 5877 5876 5875 5875 5873 5872 5872 5872 5872 5872 5871 5871 5871 5871 5872 5872 5872 5873 5873 5873 5873 5874 5874 5875 5876 5876 5877 5878
5868 5871 5873 5876 5877 5879 5881 5883 5885 5886 5886 5887 5886 5885 5884 5883 5882 5881 5879 5878 5877 5876 5875 5874 5873 5872 5870 5870 5870 5870 5869 5869 5868 5868 5868 5868 5868 5869 5869 5869 5869 5870 5870 5870 5871 5871 5872 5872 5873
5864 5867 5869 5871 5874 5876 5877 5882 5882 5883 5883 5883 5883 5882 5882 5881 5879 5878 5877 5876 5875 5874 5873 5872 5871 5870 5869 5868 5868 5867 5867 5866 5865 5865 5865 5865 5865 5865 5865 5865 5865 5866 5866 5866 5866 5867 5867 5867 5868
5859 5862 5865 5868 5870 5872 5874 5880 5878 5879 5880 5880 5880 5880 5879 5878 5877 5876 5875 5874 5872 5871 5870 5869 5869 5868 5867 5866 5865 5865 5864 5864 5863 5862 5862 5862 5862 5862 5861 5861 5861 5861 5861 5861 5861 5861 5861 5861 5862